SL-8 DEB, 19261

Orbit data source: Space-Track

SL-8 DEB, 19261 is space debris in LEO originally from a launch on Tue, 21 Jun 1988 UTC launched from the Plesetsk Missile And Space Complex (PKMTR). Debris objects in space refer to the collection of defunct objects orbiting the Earth. Examples of debris include non-operational satellites, rocket bodies, and fragments generated from explosions, collisions, or faulty payload assembly.

Loading next visibility...
Identifier
19261, 1988-053D
Orbit
LEO
Country
Flag of CISCIS
Related business
Manufacturer
Unknown
Mission
Spacecraft
Bus & Motor
Unknown
Mass
Unknown
Launch date (UTC)
1988-06-21 (38 years ago)
Launch vehicle
Unknown
Launch site
Plesetsk Missile And Space Complex (PKMTR)
Object type
Payload
Rocket body
Debris
Shape & HBR
Unknown shape, 0.1 m
Radar Cross Section
Medium (>0.1 m² and <1 m²)

Expand to show TLE details & history
Last TLE update: 2 days ago

TLE from 2 days ago
0 SL-8 DEB
1 19261U 88053D   26171.19126336  .00001320  00000-0  27975-3 0  9990
2 19261  74.0512 347.2662 0009768 180.1895 298.4551 14.60209387  1311
Epoch: 2026-06-20T04:35Z
TLE epoch observation values (Epoch: 2026-06-20T04:35:25.154Z)
Latitude
57.73981°
Longitude
163.23786°
Altitude
698.58 km
Speed
7.514 km/s
True Right ascension
09h 22m 00s
True Declination
57° 34' 59"
Sunlit
Object was in daylight at epoch
Visualization orbit readout
Latitude
Unknown
Longitude
Unknown
Altitude
Unknown
Speed
Unknown
Apparent Right ascension
Unknown
Apparent Declination
Unknown
Sunlit
N/A
Visualization observer readout
Local Sidereal Time
23:07:50
Azimuth
Unknown
Elevation
Unknown
Doppler factor
Unknown
Orbital elements
Apogee altitude
696.998 km
Perigee altitude
683.19 km
Semi-major axis
7,068.231 km
Eccentricity
0.00098
Inclination
74.0512°
RAAN
347.2662°
Arg. of periapsis
180.1895°
True anomaly
298.35663°
Mean anomaly
298.4551°
Eccentric anomaly
298.40587°
Mean motion
3.65239 °/min
Orbital period
98.57 mins
BSTAR
0.00027975
Loading maneuver chart data...
Computing Atmospheric mass density...
Loading historical data...
Loading historical data...
Loading historical data...
Loading historical data...
Loading historical data...
Loading historical data...
Loading historical data...
Other satellites on launch #53 in the year 1988 (1988-06-21 UTC)

Documentation

Showing up to 5 results
|